Location: Bessat
(45.8735°N, 1.9924°E)
Time: 07:10:51
(UTC+00:00)

SPOT 3 Rocket - Pass Details

Date: 11 May 2021
Orbit: 779 x 794 km, 98.7° (Epoch: 20 June)

Event Time Altitude Azimuth Distance (km) Brightness Sun altitude
Exits shadow 19:56:54 - 144° (SE) 2,548 5.6 -7.4°
Reaches altitude 10° 19:57:27 10° 143° (SE) 2,334 5.4 -7.5°
Maximum altitude 20:02:23 49° 69° (ENE) 1,003 3.9 -8.2°
Drops below altitude 10° 20:07:21 10° 356° (N) 2,344 6.7 -8.9°
Sets 20:09:44 0° 351° (N) 3,276 7.6 -9.2°
